| time (UTC) | temp F | wind direction | speed MPH | gust MPH | rain 1hr in | rain 24hr in | rain mn in | humidity % | barometer mb |
| 20260904131538 | 69 | 103 | 5.0 | 9.0 | 0.00 | 0.41 | 0.00 | 92 | 1014.3 |
| 20260904131056 | 69 | 122 | 6.0 | 8.0 | 0.00 | 0.41 | 0.00 | 92 | 1014.2 |
| 20260904130538 | 69 | 122 | 4.0 | 6.0 | 0.00 | 0.41 | 0.00 | 92 | 1014.4 |
| 20260904130032 | 69 | 113 | 2.0 | 3.0 | 0.00 | 0.41 | 0.00 | 91 | 1014.4 |
| 20260904125522 | 69 | 46 | 1.0 | 3.0 | 0.00 | 0.41 | 0.00 | 91 | 1014.6 |
| 20260904125035 | 69 | 72 | 2.0 | 3.0 | 0.00 | 0.41 | 0.00 | 91 | 1014.5 |
| 20260904124539 | 69 | 1 | 1.0 | 3.0 | 0.00 | 0.41 | 0.00 | 92 | 1014.4 |
| 20260904124031 | 69 | 76 | 1.0 | 4.0 | 0.00 | 0.41 | 0.00 | 92 | 1014.2 |
| 20260904123541 | 69 | 76 | 2.0 | 4.0 | 0.00 | 0.41 | 0.00 | 92 | 1014.1 |
| 20260904123056 | 69 | 56 | 2.0 | 4.0 | 0.00 | 0.41 | 0.00 | 92 | 1014.0 |
| 20260904122523 | 69 | 89 | 2.0 | 4.0 | 0.00 | 0.41 | 0.00 | 92 | 1013.9 |
| 20260904122049 | 69 | 314 | 1.0 | 4.0 | 0.00 | 0.41 | 0.00 | 92 | 1013.9 |
| 20260904121537 | 69 | 117 | 1.0 | 5.0 | 0.00 | 0.41 | 0.00 | 92 | 1013.8 |
| 20260904121025 | 69 | 35 | 2.0 | 8.0 | 0.00 | 0.41 | 0.00 | 92 | 1013.8 |
| 20260904120535 | 69 | 314 | 4.0 | 8.0 | 0.00 | 0.41 | 0.00 | 92 | 1013.8 |
| 20260904120026 | 69 | 83 | 3.0 | 7.0 | 0.00 | 0.41 | 0.00 | 92 | 1013.8 |
| 20260904115531 | 69 | 98 | 4.0 | 7.0 | 0.00 | 0.41 | 0.00 | 92 | 1013.6 |
| 20260904115058 | 69 | 96 | 3.0 | 8.0 | 0.00 | 0.41 | 0.00 | 92 | 1013.7 |
| 20260904114526 | 69 | 76 | 2.0 | 8.0 | 0.00 | 0.41 | 0.00 | 92 | 1013.8 |
| 20260904114040 | 69 | 95 | 4.0 | 6.0 | 0.00 | 0.41 | 0.00 | 92 | 1013.7 |
| 20260904113544 | 69 | 96 | 3.0 | 6.0 | 0.00 | 0.41 | 0.00 | 92 | 1013.6 |
| 20260904113034 | 69 | 115 | 3.0 | 6.0 | 0.00 | 0.41 | 0.00 | 92 | 1013.4 |
| 20260904112551 | 69 | 63 | 1.0 | 5.0 | 0.00 | 0.41 | 0.00 | 92 | 1013.4 |
| 20260904112039 | 69 | 56 | 1.0 | 5.0 | 0.00 | 0.41 | 0.00 | 92 | 1013.2 |
| 20260904111528 | 69 | 63 | 2.0 | 5.0 | 0.00 | 0.41 | 0.00 | 92 | 1013.1 |
| 20260904111040 | 69 | 46 | 1.0 | 3.0 | 0.00 | 0.41 | 0.00 | 92 | 1013.2 |
| 20260904110554 | 69 | 63 | 1.0 | 3.0 | 0.00 | 0.41 | 0.00 | 92 | 1013.1 |
| 20260904110042 | 69 | 76 | 1.0 | 3.0 | 0.00 | 0.41 | 0.00 | 92 | 1013.0 |
| 20260904105529 | 69 | 56 | 1.0 | 4.0 | 0.00 | 0.41 | 0.00 | 92 | 1013.0 |
| 20260904105038 | 69 | 35 | 1.0 | 4.0 | 0.00 | 0.41 | 0.00 | 92 | 1013.0 |
| 20260904104522 | 69 | 360 | 1.0 | 4.0 | 0.00 | 0.41 | 0.00 | 92 | 1013.0 |
| 20260904104034 | 69 | 46 | 1.0 | 2.0 | 0.00 | 0.41 | 0.00 | 92 | 1012.9 |
| 20260904103523 | 69 | 72 | 1.0 | 3.0 | 0.00 | 0.41 | 0.00 | 92 | 1013.0 |
| 20260904102535 | 69 | 46 | 0.0 | 4.0 | 0.00 | 0.41 | 0.00 | 92 | 1012.9 |
| 20260904102102 | 69 | 59 | 2.0 | 4.0 | 0.00 | 0.41 | 0.00 | 92 | 1013.0 |
| 20260904101529 | 69 | 89 | 0.0 | 2.0 | 0.00 | 0.41 | 0.00 | 92 | 1013.1 |
| 20260904101051 | 69 | 63 | 1.0 | 3.0 | 0.00 | 0.41 | 0.00 | 92 | 1013.1 |
| 20260904100540 | 69 | 89 | 1.0 | 4.0 | 0.00 | 0.41 | 0.00 | 92 | 1013.0 |
| 20260904100031 | 69 | 46 | 0.0 | 4.0 | 0.00 | 0.41 | 0.00 | 92 | 1013.0 |
| 20260904095527 | 69 | 89 | 2.0 | 4.0 | 0.00 | 0.41 | 0.00 | 91 | 1013.0 |
| 20260904095040 | 70 | 89 | 2.0 | 4.0 | 0.00 | 0.41 | 0.00 | 91 | 1013.0 |
| 20260904094528 | 70 | 105 | 0.0 | 4.0 | 0.00 | 0.41 | 0.00 | 91 | 1013.1 |
| 20260904094036 | 70 | 63 | 1.0 | 2.0 | 0.00 | 0.41 | 0.00 | 91 | 1012.9 |
| 20260904093525 | 70 | 117 | 0.0 | 4.0 | 0.00 | 0.41 | 0.00 | 91 | 1012.8 |
| 20260904093037 | 70 | 63 | 1.0 | 4.0 | 0.00 | 0.41 | 0.00 | 91 | 1012.7 |
| 20260904092546 | 70 | 46 | 1.0 | 4.0 | 0.00 | 0.41 | 0.00 | 91 | 1013.0 |
| 20260904092026 | 70 | 89 | 1.0 | 4.0 | 0.00 | 0.41 | 0.00 | 91 | 1013.0 |
| 20260904091539 | 70 | 117 | 2.0 | 5.0 | 0.00 | 0.41 | 0.00 | 91 | 1012.9 |
| 20260904091031 | 70 | 81 | 2.0 | 5.0 | 0.00 | 0.41 | 0.00 | 91 | 1012.8 |
| 20260904090043 | 70 | 39 | 1.0 | 4.0 | 0.00 | 0.41 | 0.00 | 91 | 1013.0 |
| 20260904085531 | 70 | 89 | 0.0 | 3.0 | 0.00 | 0.41 | 0.00 | 91 | 1013.1 |
| 20260904085043 | 70 | 28 | 1.0 | 3.0 | 0.00 | 0.41 | 0.00 | 91 | 1013.1 |
| 20260904084547 | 70 | 63 | 0.0 | 5.0 | 0.00 | 0.41 | 0.00 | 91 | 1013.1 |
| 20260904084038 | 70 | 72 | 2.0 | 5.0 | 0.00 | 0.41 | 0.00 | 91 | 1012.9 |
| 20260904083524 | 71 | 110 | 4.0 | 6.0 | 0.00 | 0.41 | 0.00 | 91 | 1012.8 |
| 20260904083036 | 71 | 102 | 5.0 | 6.0 | 0.00 | 0.41 | 0.00 | 91 | 1012.9 |
| 20260904082525 | 71 | 110 | 4.0 | 6.0 | 0.00 | 0.41 | 0.00 | 91 | 1013.0 |
| 20260904082036 | 71 | 124 | 4.0 | 5.0 | 0.00 | 0.41 | 0.00 | 92 | 1013.1 |
| 20260904081541 | 71 | 117 | 4.0 | 7.0 | 0.00 | 0.41 | 0.00 | 92 | 1013.2 |
| 20260904081036 | 71 | 117 | 4.0 | 7.0 | 0.00 | 0.41 | 0.00 | 91 | 1013.2 |
| 20260904080526 | 71 | 115 | 5.0 | 6.0 | 0.00 | 0.41 | 0.00 | 91 | 1013.1 |
| 20260904080037 | 71 | 115 | 4.0 | 6.0 | 0.00 | 0.41 | 0.00 | 91 | 1013.3 |
| 20260904075550 | 71 | 133 | 4.0 | 6.0 | 0.00 | 0.41 | 0.00 | 91 | 1013.3 |
| 20260904075042 | 71 | 131 | 5.0 | 6.0 | 0.00 | 0.41 | 0.00 | 91 | 1013.4 |
| 20260904074533 | 71 | 112 | 4.0 | 6.0 | 0.00 | 0.41 | 0.00 | 91 | 1013.3 |
| 20260904074041 | 71 | 127 | 5.0 | 6.0 | 0.00 | 0.41 | 0.00 | 91 | 1013.3 |
| 20260904073528 | 71 | 124 | 5.0 | 6.0 | 0.00 | 0.41 | 0.00 | 91 | 1013.3 |
| 20260904073049 | 71 | 132 | 5.0 | 6.0 | 0.00 | 0.41 | 0.00 | 91 | 1013.4 |
| 20260904072537 | 71 | 121 | 5.0 | 7.0 | 0.00 | 0.41 | 0.00 | 90 | 1013.2 |
| 20260904072024 | 71 | 133 | 5.0 | 7.0 | 0.00 | 0.41 | 0.00 | 90 | 1013.3 |
| 20260904071559 | 71 | 135 | 5.0 | 6.0 | 0.00 | 0.41 | 0.00 | 90 | 1013.2 |
| 20260904071030 | 70 | 131 | 5.0 | 7.0 | 0.00 | 0.41 | 0.00 | 90 | 1013.2 |
| 20260904070538 | 70 | 124 | 6.0 | 7.0 | 0.00 | 0.41 | 0.00 | 90 | 1013.1 |
| 20260904070030 | 70 | 135 | 6.0 | 8.0 | 0.00 | 0.41 | 0.00 | 90 | 1013.3 |
| 20260904065536 | 70 | 121 | 5.0 | 7.0 | 0.00 | 0.41 | 0.00 | 90 | 1013.3 |
| 20260904065112 | 70 | 132 | 6.0 | 8.0 | 0.00 | 0.41 | 0.00 | 89 | 1013.2 |
| 20260904064548 | 70 | 115 | 6.0 | 8.0 | 0.00 | 0.41 | 0.00 | 89 | 1013.3 |
| 20260904064035 | 70 | 129 | 6.0 | 8.0 | 0.00 | 0.41 | 0.00 | 89 | 1013.5 |
| 20260904063549 | 70 | 133 | 6.0 | 8.0 | 0.00 | 0.41 | 0.00 | 90 | 1013.7 |
| 20260904063029 | 70 | 121 | 4.0 | 6.0 | 0.00 | 0.41 | 0.00 | 90 | 1013.9 |
| 20260904062600 | 70 | 130 | 5.0 | 7.0 | 0.00 | 0.41 | 0.00 | 90 | 1013.9 |
| 20260904062034 | 70 | 124 | 5.0 | 7.0 | 0.00 | 0.41 | 0.00 | 90 | 1013.9 |
| 20260904061523 | 70 | 131 | 5.0 | 7.0 | 0.00 | 0.41 | 0.00 | 90 | 1013.9 |
| 20260904061031 | 70 | 135 | 5.0 | 7.0 | 0.00 | 0.41 | 0.00 | 91 | 1014.0 |
| 20260904060522 | 70 | 122 | 6.0 | 8.0 | 0.00 | 0.41 | 0.00 | 91 | 1014.0 |
| 20260904060036 | 70 | 124 | 6.0 | 8.0 | 0.00 | 0.41 | 0.00 | 91 | 1013.8 |
| 20260904055546 | 70 | 127 | 7.0 | 8.0 | 0.00 | 0.41 | 0.00 | 92 | 1013.8 |
| 20260904055033 | 70 | 124 | 7.0 | 8.0 | 0.00 | 0.41 | 0.00 | 92 | 1013.7 |
| 20260904054541 | 70 | 117 | 7.0 | 8.0 | 0.00 | 0.41 | 0.00 | 92 | 1013.7 |
| 20260904054032 | 70 | 112 | 6.0 | 9.0 | 0.00 | 0.41 | 0.00 | 92 | 1014.0 |
| 20260904053523 | 70 | 110 | 7.0 | 9.0 | 0.00 | 0.41 | 0.00 | 92 | 1013.9 |
| 20260904053035 | 70 | 126 | 6.0 | 8.0 | 0.00 | 0.41 | 0.00 | 92 | 1014.0 |
| 20260904052527 | 70 | 117 | 7.0 | 8.0 | 0.00 | 0.41 | 0.00 | 92 | 1014.0 |
| 20260904052038 | 70 | 129 | 7.0 | 8.0 | 0.00 | 0.41 | 0.00 | 92 | 1014.1 |
| 20260904051541 | 69 | 95 | 3.0 | 6.0 | 0.00 | 0.41 | 0.00 | 92 | 1014.1 |
| 20260904051037 | 69 | 89 | 3.0 | 6.0 | 0.00 | 0.41 | 0.00 | 92 | 1014.1 |
| 20260904050526 | 69 | 110 | 5.0 | 6.0 | 0.00 | 0.41 | 0.00 | 92 | 1014.1 |
| 20260904050051 | 70 | 95 | 3.0 | 6.0 | 0.00 | 0.41 | 0.00 | 92 | 1014.1 |
| 20260904045532 | 70 | 72 | 3.0 | 6.0 | 0.00 | 0.41 | 0.00 | 92 | 1014.0 |
| 20260904045024 | 70 | 103 | 0.0 | 8.0 | 0.00 | 0.41 | 0.00 | 92 | 1014.0 |
| 20260904044533 | 70 | 121 | 5.0 | 8.0 | 0.00 | 0.41 | 0.00 | 92 | 1013.9 |
| 20260904044105 | 70 | 110 | 6.0 | 9.0 | 0.00 | 0.41 | 0.00 | 92 | 1014.0 |
| 20260904043533 | 70 | 122 | 8.0 | 9.0 | 0.00 | 0.41 | 0.00 | 92 | 1013.8 |
| 20260904043026 | 70 | 98 | 5.0 | 6.0 | 0.00 | 0.41 | 0.00 | 92 | 1013.8 |
| 20260904042534 | 70 | 105 | 3.0 | 8.0 | 0.00 | 0.41 | 0.00 | 92 | 1013.9 |
| 20260904042024 | 70 | 82 | 4.0 | 8.0 | 0.00 | 0.41 | 0.00 | 92 | 1014.0 |
| 20260904041532 | 70 | 110 | 5.0 | 7.0 | 0.00 | 0.41 | 0.00 | 92 | 1014.1 |
| 20260904041025 | 70 | 102 | 4.0 | 6.0 | 0.00 | 0.41 | 0.00 | 92 | 1014.0 |
| 20260904040533 | 70 | 100 | 4.0 | 8.0 | 0.00 | 0.41 | 0.00 | 92 | 1013.9 |
| 20260904040042 | 70 | 108 | 6.0 | 8.0 | 0.00 | 0.41 | 0.00 | 92 | 1013.8 |
| 20260904035545 | 70 | 100 | 5.0 | 6.0 | 0.00 | 0.41 | 0.41 | 92 | 1013.8 |
| 20260904035100 | 70 | 107 | 4.0 | 6.0 | 0.00 | 0.41 | 0.41 | 92 | 1013.8 |
| 20260904034525 | 70 | 126 | 2.0 | 4.0 | 0.00 | 0.41 | 0.41 | 92 | 1013.8 |
| 20260904034037 | 70 | 269 | 1.0 | 3.0 | 0.00 | 0.41 | 0.41 | 92 | 1013.8 |
| 20260904033528 | 70 | 89 | 0.0 | 4.0 | 0.00 | 0.41 | 0.41 | 92 | 1013.8 |
| 20260904033036 | 70 | 1 | 0.0 | 4.0 | 0.00 | 0.41 | 0.41 | 92 | 1013.7 |
| 20260904032558 | 70 | 89 | 3.0 | 4.0 | 0.00 | 0.41 | 0.41 | 92 | 1013.8 |
| 20260904032030 | 70 | 102 | 2.0 | 7.0 | 0.00 | 0.41 | 0.41 | 92 | 1013.8 |
| 20260904031537 | 70 | 108 | 3.0 | 7.0 | 0.00 | 0.41 | 0.41 | 92 | 1013.8 |
| 20260904031029 | 70 | 103 | 5.0 | 6.0 | 0.00 | 0.41 | 0.41 | 92 | 1013.7 |
| 20260904030540 | 70 | 63 | 1.0 | 2.0 | 0.00 | 0.41 | 0.41 | 92 | 1013.8 |
| 20260904030030 | 70 | 46 | 1.0 | 2.0 | 0.00 | 0.41 | 0.41 | 92 | 1013.7 |
| 20260904025558 | 70 | 89 | 1.0 | 2.0 | 0.00 | 0.41 | 0.41 | 92 | 1013.7 |
| 20260904025037 | 70 | 35 | 1.0 | 2.0 | 0.00 | 0.41 | 0.41 | 92 | 1013.6 |
| 20260904024527 | 70 | 46 | 1.0 | 2.0 | 0.00 | 0.41 | 0.41 | 92 | 1013.7 |
| 20260904024034 | 70 | 314 | 1.0 | 2.0 | 0.00 | 0.41 | 0.41 | 92 | 1013.8 |
| 20260904023523 | 70 | 46 | 1.0 | 2.0 | 0.00 | 0.41 | 0.41 | 92 | 1013.8 |
| 20260904023036 | 70 | 46 | 1.0 | 2.0 | 0.00 | 0.41 | 0.41 | 93 | 1013.8 |
| 20260904022525 | 70 | 20 | 1.0 | 2.0 | 0.00 | 0.41 | 0.41 | 93 | 1013.9 |
| 20260904022038 | 70 | 1 | 1.0 | 2.0 | 0.00 | 0.41 | 0.41 | 93 | 1013.9 |
| 20260904021551 | 70 | 46 | 1.0 | 2.0 | 0.00 | 0.41 | 0.41 | 93 | 1013.8 |
| 20260904021048 | 69 | 32 | 1.0 | 2.0 | 0.00 | 0.41 | 0.41 | 93 | 1013.7 |
| 20260904020534 | 69 | 89 | 1.0 | 2.0 | 0.00 | 0.41 | 0.41 | 93 | 1013.9 |
| 20260904020101 | 69 | 89 | 1.0 | 2.0 | 0.00 | 0.41 | 0.41 | 93 | 1013.7 |
| 20260904015554 | 69 | 46 | 1.0 | 3.0 | 0.00 | 0.41 | 0.41 | 93 | 1013.7 |
| 20260904015024 | 69 | 1 | 1.0 | 4.0 | 0.00 | 0.41 | 0.41 | 93 | 1013.6 |
| 20260904014559 | 70 | 63 | 1.0 | 4.0 | 0.00 | 0.41 | 0.41 | 93 | 1013.5 |
| 20260904014055 | 70 | 46 | 1.0 | 4.0 | 0.00 | 0.41 | 0.41 | 93 | 1013.5 |
| 20260904013536 | 70 | 46 | 1.0 | 2.0 | 0.00 | 0.41 | 0.41 | 93 | 1013.5 |
| 20260904013026 | 70 | 35 | 1.0 | 3.0 | 0.00 | 0.41 | 0.41 | 93 | 1013.5 |
| 20260904012535 | 70 | 53 | 1.0 | 3.0 | 0.00 | 0.41 | 0.41 | 93 | 1013.5 |
| 20260904012029 | 70 | 20 | 1.0 | 3.0 | 0.00 | 0.41 | 0.41 | 93 | 1013.4 |
| 20260904011537 | 70 | 331 | 1.0 | 4.0 | 0.00 | 0.41 | 0.41 | 93 | 1013.4 |
| 20260904011028 | 70 | 340 | 2.0 | 4.0 | 0.00 | 0.41 | 0.41 | 93 | 1013.3 |
| 20260904010536 | 70 | 35 | 1.0 | 4.0 | 0.00 | 0.41 | 0.41 | 93 | 1013.3 |
| 20260904010029 | 70 | 46 | 1.0 | 3.0 | 0.00 | 0.41 | 0.41 | 93 | 1013.2 |
| 20260904005536 | 70 | 28 | 1.0 | 3.0 | 0.00 | 0.41 | 0.41 | 93 | 1013.1 |
| 20260904005102 | 70 | 23 | 1.0 | 3.0 | 0.00 | 0.41 | 0.41 | 93 | 1013.0 |
| 20260904004525 | 70 | 20 | 1.0 | 3.0 | 0.00 | 0.41 | 0.41 | 93 | 1012.9 |
| 20260904004036 | 70 | 35 | 1.0 | 3.0 | 0.00 | 0.41 | 0.41 | 93 | 1013.0 |
| 20260904003558 | 70 | 46 | 1.0 | 2.0 | 0.00 | 0.41 | 0.41 | 93 | 1013.0 |
| 20260904003026 | 70 | 13 | 1.0 | 3.0 | 0.00 | 0.41 | 0.41 | 93 | 1012.9 |
| 20260904002535 | 71 | 46 | 1.0 | 3.0 | 0.00 | 0.41 | 0.41 | 93 | 1012.8 |
| 20260904002111 | 71 | 28 | 1.0 | 3.0 | 0.00 | 0.41 | 0.41 | 93 | 1012.7 |
| 20260904001540 | 71 | 46 | 1.0 | 2.0 | 0.00 | 0.41 | 0.41 | 93 | 1012.6 |
| 20260904001035 | 71 | 1 | 1.0 | 2.0 | 0.00 | 0.41 | 0.41 | 93 | 1012.6 |
| 20260904000522 | 71 | 1 | 1.0 | 2.0 | 0.00 | 0.41 | 0.41 | 93 | 1012.5 |
| 20260904000039 | 71 | 28 | 0.0 | 2.0 | 0.00 | 0.41 | 0.41 | 93 | 1012.5 |
| 20260903235527 | 71 | 63 | 0.0 | 2.0 | 0.00 | 0.41 | 0.41 | 93 | 1012.6 |
| 20260903235039 | 72 | 314 | 0.0 | 2.0 | 0.00 | 0.41 | 0.41 | 93 | 1012.6 |
| 20260903234548 | 72 | 46 | 0.0 | 2.0 | 0.00 | 0.41 | 0.41 | 93 | 1012.5 |
| 20260903234039 | 72 | 340 | 1.0 | 2.0 | 0.00 | 0.41 | 0.41 | 93 | 1012.3 |
| 20260903233552 | 72 | 1 | 1.0 | 2.0 | 0.00 | 0.41 | 0.41 | 93 | 1012.3 |
| 20260903233049 | 72 | 63 | 1.0 | 3.0 | 0.00 | 0.41 | 0.41 | 93 | 1012.4 |
| 20260903232531 | 72 | 46 | 1.0 | 3.0 | 0.00 | 0.41 | 0.41 | 93 | 1012.3 |
| 20260903232043 | 72 | 105 | 1.0 | 3.0 | 0.00 | 0.41 | 0.41 | 93 | 1012.3 |
| 20260903231532 | 72 | 46 | 0.0 | 3.0 | 0.00 | 0.41 | 0.41 | 93 | 1012.3 |
| 20260903230535 | 72 | 46 | 0.0 | 4.0 | 0.00 | 0.41 | 0.41 | 93 | 1012.0 |
| 20260903230053 | 72 | 46 | 0.0 | 6.0 | 0.00 | 0.41 | 0.41 | 93 | 1011.9 |
| 20260903225559 | 72 | 98 | 2.0 | 6.0 | 0.00 | 0.41 | 0.41 | 93 | 1011.7 |
| 20260903225038 | 72 | 103 | 3.0 | 8.0 | 0.00 | 0.41 | 0.41 | 93 | 1011.7 |
| 20260903224529 | 72 | 108 | 4.0 | 9.0 | 0.00 | 0.41 | 0.41 | 93 | 1011.8 |
| 20260903224036 | 72 | 105 | 5.0 | 10.0 | 0.00 | 0.41 | 0.41 | 93 | 1011.8 |
| 20260903223528 | 72 | 105 | 7.0 | 10.0 | 0.00 | 0.41 | 0.41 | 93 | 1011.9 |
| 20260903223024 | 71 | 115 | 7.0 | 10.0 | 0.00 | 0.41 | 0.41 | 93 | 1011.9 |
| 20260903222536 | 71 | 107 | 8.0 | 11.0 | 0.00 | 0.41 | 0.41 | 93 | 1011.8 |
| 20260903222031 | 71 | 110 | 9.0 | 11.0 | 0.00 | 0.41 | 0.41 | 93 | 1011.7 |
| 20260903221540 | 71 | 120 | 7.0 | 10.0 | 0.00 | 0.41 | 0.41 | 93 | 1011.9 |
| 20260903221028 | 71 | 115 | 9.0 | 10.0 | 0.00 | 0.41 | 0.41 | 93 | 1011.7 |
| 20260903220535 | 71 | 124 | 8.0 | 9.0 | 0.00 | 0.41 | 0.41 | 93 | 1011.7 |
| 20260903220028 | 71 | 127 | 7.0 | 9.0 | 0.00 | 0.41 | 0.41 | 94 | 1011.7 |
| 20260903215533 | 70 | 107 | 7.0 | 9.0 | 0.00 | 0.41 | 0.41 | 94 | 1011.8 |
| 20260903215025 | 70 | 113 | 7.0 | 8.0 | 0.00 | 0.41 | 0.41 | 94 | 1011.8 |
| 20260903214531 | 70 | 117 | 5.0 | 9.0 | 0.00 | 0.41 | 0.41 | 94 | 1011.8 |
| 20260903214024 | 70 | 100 | 5.0 | 9.0 | 0.00 | 0.41 | 0.41 | 94 | 1011.8 |
| 20260903213531 | 69 | 117 | 2.0 | 9.0 | 0.00 | 0.41 | 0.41 | 94 | 1011.9 |
| 20260903212534 | 69 | 86 | 4.0 | 9.0 | 0.00 | 0.41 | 0.41 | 93 | 1011.8 |
| 20260903212024 | 69 | 68 | 2.0 | 10.0 | 0.00 | 0.41 | 0.41 | 93 | 1011.6 |
| 20260903211532 | 69 | 46 | 2.0 | 12.0 | 0.00 | 0.41 | 0.41 | 93 | 1011.4 |
| 20260903211035 | 69 | 101 | 5.0 | 12.0 | 0.00 | 0.41 | 0.41 | 93 | 1011.1 |
| 20260903210523 | 69 | 84 | 5.0 | 10.0 | 0.01 | 0.41 | 0.41 | 93 | 1011.4 |
| 20260903210035 | 69 | 84 | 8.0 | 10.0 | 0.01 | 0.41 | 0.41 | 93 | 1011.7 |
| 20260903205525 | 69 | 86 | 2.0 | 6.0 | 0.02 | 0.41 | 0.41 | 93 | 1012.5 |
| 20260903205034 | 70 | 89 | 1.0 | 9.0 | 0.03 | 0.41 | 0.41 | 94 | 1012.5 |
| 20260903204539 | 70 | 46 | 1.0 | 18.0 | 0.03 | 0.41 | 0.41 | 93 | 1012.6 |
| 20260903204054 | 70 | 86 | 13.0 | 18.0 | 0.04 | 0.41 | 0.41 | 94 | 1011.9 |
| 20260903203548 | 69 | 96 | 12.0 | 14.0 | 0.06 | 0.41 | 0.41 | 94 | 1012.1 |
| 20260903203040 | 69 | 89 | 7.0 | 12.0 | 0.08 | 0.41 | 0.41 | 94 | 1012.6 |
| 20260903202532 | 69 | 86 | 5.0 | 11.0 | 0.09 | 0.41 | 0.41 | 93 | 1012.9 |
| 20260903202043 | 69 | 1 | 2.0 | 9.0 | 0.11 | 0.41 | 0.41 | 93 | 1012.9 |
| 20260903201524 | 69 | 84 | 3.0 | 9.0 | 0.13 | 0.41 | 0.41 | 93 | 1012.8 |
| 20260903201039 | 69 | 56 | 1.0 | 5.0 | 0.14 | 0.40 | 0.40 | 93 | 1013.1 |
| 20260903200526 | 69 | 89 | 1.0 | 6.0 | 0.15 | 0.40 | 0.40 | 93 | 1013.3 |
| 20260903200035 | 69 | 46 | 2.0 | 6.0 | 0.15 | 0.39 | 0.39 | 93 | 1013.2 |
| 20260903195543 | 69 | 28 | 1.0 | 3.0 | 0.15 | 0.49 | 0.38 | 93 | 1013.0 |
| 20260903195100 | 69 | 72 | 1.0 | 2.0 | 0.16 | 0.49 | 0.38 | 93 | 1013.1 |
| 20260903194528 | 69 | 28 | 1.0 | 4.0 | 0.18 | 0.49 | 0.38 | 93 | 1013.2 |
| 20260903194036 | 69 | 46 | 1.0 | 4.0 | 0.18 | 0.47 | 0.36 | 93 | 1013.7 |
| 20260903193525 | 69 | 15 | 1.0 | 4.0 | 0.18 | 0.46 | 0.35 | 93 | 1014.1 |
| 20260903192534 | 70 | 28 | 2.0 | 10.0 | 0.24 | 0.43 | 0.32 | 92 | 1014.2 |
| 20260903192027 | 70 | 72 | 4.0 | 10.0 | 0.26 | 0.40 | 0.29 | 92 | 1014.3 |
| 20260903191601 | 70 | 353 | 2.0 | 7.0 | 0.28 | 0.39 | 0.28 | 92 | 1014.2 |
| 20260903191027 | 70 | 340 | 2.0 | 4.0 | 0.26 | 0.37 | 0.26 | 92 | 1013.8 |
| 20260903190601 | 70 | 15 | 2.0 | 3.0 | 0.25 | 0.36 | 0.25 | 92 | 1013.4 |
| 20260903190037 | 70 | 89 | 0.0 | 4.0 | 0.24 | 0.35 | 0.24 | 91 | 1013.1 |
| 20260903185539 | 70 | 46 | 2.0 | 4.0 | 0.23 | 0.34 | 0.23 | 91 | 1013.4 |
| 20260903185042 | 70 | 15 | 1.0 | 5.0 | 0.22 | 0.33 | 0.22 | 91 | 1013.9 |
| 20260903184554 | 71 | 331 | 1.0 | 4.0 | 0.19 | 0.30 | 0.19 | 91 | 1014.0 |
| 20260903184106 | 71 | 1 | 1.0 | 7.0 | 0.18 | 0.29 | 0.18 | 91 | 1014.0 |
| 20260903183522 | 71 | 89 | 1.0 | 6.0 | 0.17 | 0.28 | 0.17 | 91 | 1014.1 |
| 20260903183042 | 72 | 89 | 2.0 | 7.0 | 0.15 | 0.26 | 0.15 | 90 | 1013.8 |
| 20260903182530 | 72 | 349 | 2.0 | 8.0 | 0.07 | 0.18 | 0.07 | 90 | 1014.8 |
| 20260903182102 | 72 | 344 | 3.0 | 8.0 | 0.02 | 0.13 | 0.02 | 90 | 1014.5 |
| 20260903181529 | 72 | 1 | 2.0 | 6.0 | 0.00 | 0.11 | 0.00 | 90 | 1013.8 |
| 20260903181040 | 72 | 314 | 2.0 | 6.0 | 0.00 | 0.11 | 0.00 | 89 | 1013.1 |
| 20260903180553 | 73 | 40 | 2.0 | 8.0 | 0.00 | 0.11 | 0.00 | 90 | 1013.0 |
| 20260903180024 | 73 | 8 | 2.0 | 8.0 | 0.00 | 0.11 | 0.00 | 89 | 1012.9 |
| 20260903175535 | 73 | 340 | 2.0 | 7.0 | 0.00 | 0.11 | 0.00 | 89 | 1012.7 |
| 20260903175052 | 73 | 32 | 2.0 | 7.0 | 0.00 | 0.11 | 0.00 | 89 | 1012.4 |
| 20260903174602 | 73 | 28 | 2.0 | 6.0 | 0.00 | 0.11 | 0.00 | 88 | 1012.2 |
| 20260903174034 | 73 | 303 | 2.0 | 6.0 | 0.00 | 0.11 | 0.00 | 88 | 1012.0 |
| 20260903173543 | 74 | 18 | 2.0 | 6.0 | 0.00 | 0.11 | 0.00 | 87 | 1011.9 |
| 20260903173041 | 74 | 59 | 2.0 | 6.0 | 0.00 | 0.11 | 0.00 | 86 | 1012.1 |
| 20260903172554 | 74 | 37 | 2.0 | 5.0 | 0.00 | 0.11 | 0.00 | 85 | 1012.3 |
| 20260903172025 | 74 | 1 | 2.0 | 9.0 | 0.00 | 0.11 | 0.00 | 85 | 1012.8 |
| 20260903171613 | 74 | 42 | 2.0 | 9.0 | 0.00 | 0.11 | 0.00 | 85 | 1012.8 |
| 20260903171103 | 74 | 77 | 2.0 | 5.0 | 0.00 | 0.11 | 0.00 | 84 | 1012.4 |
| 20260903170529 | 74 | 28 | 2.0 | 6.0 | 0.00 | 0.11 | 0.00 | 84 | 1012.3 |
| 20260903170043 | 75 | 89 | 2.0 | 6.0 | 0.00 | 0.11 | 0.00 | 83 | 1012.4 |
| 20260903165557 | 75 | 28 | 2.0 | 5.0 | 0.00 | 0.11 | 0.00 | 83 | 1012.5 |
| 20260903165027 | 75 | 46 | 1.0 | 4.0 | 0.00 | 0.11 | 0.00 | 82 | 1012.8 |
| 20260903164533 | 75 | 56 | 1.0 | 4.0 | 0.00 | 0.11 | 0.00 | 81 | 1012.7 |
| 20260903164025 | 76 | 28 | 1.0 | 5.0 | 0.00 | 0.11 | 0.00 | 81 | 1012.8 |
| 20260903163535 | 76 | 32 | 1.0 | 6.0 | 0.00 | 0.11 | 0.00 | 81 | 1012.9 |
| 20260903163027 | 76 | 32 | 2.0 | 6.0 | 0.00 | 0.11 | 0.00 | 81 | 1012.8 |
| 20260903162533 | 76 | 269 | 2.0 | 4.0 | 0.00 | 0.11 | 0.00 | 80 | 1012.9 |
| 20260903162027 | 76 | 331 | 2.0 | 4.0 | 0.00 | 0.11 | 0.00 | 80 | 1013.0 |
| 20260903161534 | 76 | 89 | 2.0 | 4.0 | 0.00 | 0.11 | 0.00 | 80 | 1012.9 |
| 20260903161024 | 77 | 46 | 1.0 | 3.0 | 0.00 | 0.11 | 0.00 | 80 | 1012.9 |
| 20260903160532 | 77 | 20 | 1.0 | 2.0 | 0.00 | 0.11 | 0.00 | 80 | 1013.0 |
| 20260903160143 | 77 | 46 | 1.0 | 3.0 | 0.00 | 0.11 | 0.00 | 81 | 1012.9 |
| 20260903155538 | 77 | 179 | 1.0 | 3.0 | 0.00 | 0.11 | 0.00 | 81 | 1013.0 |
| 20260903155026 | 76 | 56 | 1.0 | 4.0 | 0.00 | 0.11 | 0.00 | 81 | 1013.1 |
| 20260903154534 | 76 | 89 | 2.0 | 4.0 | 0.00 | 0.11 | 0.00 | 81 | 1013.1 |
| 20260903154026 | 76 | 1 | 1.0 | 4.0 | 0.00 | 0.11 | 0.00 | 81 | 1013.2 |
| 20260903153532 | 76 | 1 | 1.0 | 4.0 | 0.00 | 0.11 | 0.00 | 81 | 1013.2 |
| 20260903153104 | 77 | 1 | 1.0 | 5.0 | 0.00 | 0.11 | 0.00 | 80 | 1013.2 |
| 20260903152530 | 77 | 46 | 1.0 | 5.0 | 0.00 | 0.11 | 0.00 | 81 | 1013.1 |
| 20260903152041 | 77 | 89 | 1.0 | 5.0 | 0.00 | 0.11 | 0.00 | 81 | 1013.1 |
| 20260903151610 | 76 | 1 | 2.0 | 5.0 | 0.00 | 0.11 | 0.00 | 81 | 1012.8 |
| 20260903151100 | 76 | 46 | 1.0 | 6.0 | 0.00 | 0.11 | 0.00 | 79 | 1012.8 |
| 20260903150527 | 76 | 28 | 1.0 | 4.0 | 0.00 | 0.11 | 0.00 | 80 | 1012.7 |
| 20260903145534 | 76 | 89 | 1.0 | 3.0 | 0.00 | 0.11 | 0.00 | 81 | 1012.5 |
| 20260903145028 | 76 | 28 | 1.0 | 3.0 | 0.00 | 0.11 | 0.00 | 81 | 1012.5 |
| 20260903144532 | 76 | 13 | 1.0 | 6.0 | 0.00 | 0.11 | 0.00 | 81 | 1012.5 |
| 20260903144042 | 75 | 35 | 2.0 | 6.0 | 0.00 | 0.11 | 0.00 | 81 | 1012.4 |
| 20260903143532 | 75 | 79 | 3.0 | 8.0 | 0.00 | 0.11 | 0.00 | 80 | 1012.4 |
| 20260903143039 | 75 | 70 | 3.0 | 8.0 | 0.00 | 0.11 | 0.00 | 80 | 1012.4 |
| 20260903142525 | 75 | 105 | 7.0 | 9.0 | 0.00 | 0.11 | 0.00 | 81 | 1012.4 |
| 20260903142040 | 75 | 124 | 6.0 | 9.0 | 0.00 | 0.11 | 0.00 | 81 | 1012.6 |
| 20260903141552 | 75 | 120 | 5.0 | 7.0 | 0.00 | 0.11 | 0.00 | 81 | 1012.6 |
| 20260903141037 | 75 | 110 | 3.0 | 7.0 | 0.00 | 0.11 | 0.00 | 81 | 1012.7 |
| 20260903140523 | 75 | 124 | 5.0 | 9.0 | 0.00 | 0.11 | 0.00 | 82 | 1012.6 |
| 20260903140036 | 74 | 110 | 7.0 | 9.0 | 0.00 | 0.11 | 0.00 | 82 | 1012.6 |
| 20260903135538 | 74 | 98 | 6.0 | 8.0 | 0.00 | 0.11 | 0.00 | 84 | 1012.6 |
| 20260903135117 | 74 | 113 | 5.0 | 8.0 | 0.00 | 0.11 | 0.00 | 84 | 1012.7 |
| 20260903134529 | 74 | 113 | 4.0 | 8.0 | 0.00 | 0.11 | 0.00 | 85 | 1012.8 |
| 20260903134101 | 74 | 101 | 6.0 | 8.0 | 0.00 | 0.11 | 0.00 | 85 | 1012.7 |
| 20260903133551 | 73 | 101 | 3.0 | 8.0 | 0.00 | 0.11 | 0.00 | 85 | 1012.6 |
| 20260903133029 | 73 | 101 | 4.0 | 8.0 | 0.00 | 0.11 | 0.00 | 84 | 1012.6 |
| 20260903132558 | 73 | 98 | 2.0 | 8.0 | 0.00 | 0.11 | 0.00 | 84 | 1012.7 |
| 20260903132028 | 73 | 340 | 2.0 | 9.0 | 0.00 | 0.11 | 0.00 | 84 | 1012.6 |